Radiation Dose at Monitoring Post of Fukushima Daini Nuclear Power Station
Date,Time,MP-1(microSv/h),MP-2(microSv/h),MP-3(microSv/h),MP-4(microSv/h),MP-5(microSv/h),MP-6(microSv/h),MP-7(microSv/h),Wind Direction,Wind Velocity(m/s),Rain
2017/05/25,00:00,0.378,0.232,0.399,0.370,0.332,0.192,0.146,southwest,2.0,No
2017/05/25,00:10,0.382,0.232,0.403,0.370,0.329,0.193,0.148,southwest,1.8,No
2017/05/25,00:20,0.378,0.232,0.401,0.369,0.332,0.192,0.147,southwest,1.4,Yes
2017/05/25,00:30,0.382,0.232,0.403,0.372,0.330,0.193,0.147,southwest,1.4,Yes
2017/05/25,00:40,0.380,0.231,0.401,0.368,0.331,0.193,0.146,south-southwest,1.2,Yes
2017/05/25,00:50,0.381,0.234,0.403,0.372,0.331,0.194,0.146,south-southwest,1.9,Yes
2017/05/25,01:00,0.380,0.231,0.401,0.370,0.331,0.193,0.147,south-southwest,1.6,Yes
2017/05/25,01:10,0.380,0.233,0.404,0.370,0.333,0.193,0.149,south-southwest,1.1,Yes
2017/05/25,01:20,0.380,0.232,0.403,0.372,0.330,0.194,0.148,south-southwest,1.6,Yes
2017/05/25,01:30,0.381,0.233,0.405,0.372,0.333,0.193,0.148,south-southwest,1.8,Yes
2017/05/25,01:40,0.383,0.233,0.400,0.370,0.330,0.194,0.147,south,1.4,Yes
2017/05/25,01:50,0.380,0.234,0.403,0.371,0.331,0.194,0.149,-,CALM,Yes
2017/05/25,02:00,0.381,0.235,0.401,0.371,0.329,0.194,0.149,north,1.4,Yes
2017/05/25,02:10,0.381,0.234,0.404,0.370,0.331,0.195,0.148,north,2.2,Yes
2017/05/25,02:20,0.382,0.234,0.401,0.372,0.331,0.194,0.149,north-northeast,2.0,Yes
2017/05/25,02:30,0.380,0.234,0.403,0.369,0.332,0.194,0.149,north,2.9,Yes
2017/05/25,02:40,0.384,0.234,0.402,0.371,0.331,0.195,0.149,north,3.2,Yes
2017/05/25,02:50,0.379,0.234,0.402,0.367,0.330,0.194,0.150,north,3.9,Yes
2017/05/25,03:00,0.382,0.234,0.401,0.371,0.332,0.195,0.149,north,5.5,Yes
2017/05/25,03:10,0.379,0.235,0.402,0.368,0.331,0.195,0.149,-,CALM,Yes
2017/05/25,03:20,0.381,0.233,0.400,0.367,0.331,0.194,0.149,north,5.0,Yes
2017/05/25,03:30,0.377,0.232,0.399,0.367,0.327,0.194,0.149,north,7.8,Yes
2017/05/25,03:40,0.378,0.233,0.396,0.367,0.330,0.195,0.148,north,5.9,Yes
2017/05/25,03:50,0.376,0.231,0.396,0.364,0.326,0.194,0.148,north,5.9,Yes
2017/05/25,04:00,0.378,0.231,0.393,0.363,0.329,0.193,0.148,north-northeast,5.6,Yes
2017/05/25,04:10,0.375,0.232,0.395,0.363,0.326,0.192,0.148,north,5.0,Yes
2017/05/25,04:20,0.377,0.231,0.394,0.363,0.330,0.192,0.147,north,3.9,Yes
2017/05/25,04:30,0.375,0.230,0.390,0.363,0.326,0.192,0.149,north,4.8,Yes
2017/05/25,04:40,0.377,0.231,0.393,0.362,0.329,0.192,0.147,north,5.6,Yes
2017/05/25,04:50,0.374,0.229,0.394,0.362,0.325,0.191,0.146,north,6.1,Yes
2017/05/25,05:00,0.375,0.231,0.391,0.361,0.328,0.192,0.145,north,6.4,Yes
2017/05/25,05:10,0.373,0.230,0.391,0.363,0.325,0.192,0.146,north,6.5,Yes
2017/05/25,05:20,0.375,0.230,0.390,0.360,0.329,0.191,0.146,north,6.4,Yes
2017/05/25,05:30,0.373,0.229,0.393,0.362,0.326,0.191,0.146,north,5.9,Yes
2017/05/25,05:40,0.375,0.228,0.390,0.360,0.329,0.192,0.145,north,5.2,Yes
2017/05/25,05:50,0.373,0.230,0.391,0.361,0.326,0.191,0.145,north,5.2,Yes
2017/05/25,06:00,0.375,0.228,0.388,0.359,0.327,0.191,0.145,north,5.6,Yes
2017/05/25,06:10,0.373,0.230,0.392,0.362,0.324,0.191,0.146,north,6.3,Yes
2017/05/25,06:20,0.374,0.228,0.386,0.358,0.327,0.192,0.146,north,5.9,Yes
2017/05/25,06:30,0.371,0.229,0.389,0.361,0.323,0.191,0.146,north,5.8,Yes
2017/05/25,06:40,0.373,0.228,0.387,0.357,0.327,0.192,0.146,north,5.7,Yes
2017/05/25,06:50,0.371,0.228,0.389,0.360,0.324,0.191,0.145,north,5.7,Yes
2017/05/25,07:00,0.374,0.227,0.384,0.356,0.323,0.190,0.145,north,5.6,Yes
2017/05/25,07:10,0.371,0.227,0.387,0.358,0.324,0.189,0.145,north,5.6,Yes
2017/05/25,07:20,0.372,0.228,0.385,0.355,0.327,0.191,0.146,north-northeast,6.0,Yes
2017/05/25,07:30,0.370,0.227,0.387,0.358,0.323,0.190,0.145,north,5.0,Yes
2017/05/25,07:40,0.373,0.228,0.382,0.355,0.326,0.191,0.145,north,5.3,Yes
2017/05/25,07:50,0.371,0.226,0.384,0.355,0.323,0.189,0.144,north,5.5,Yes
2017/05/25,08:00,0.370,0.228,0.384,0.356,0.326,0.189,0.145,north,4.8,Yes
2017/05/25,08:10,0.370,0.226,0.384,0.354,0.323,0.189,0.144,north,4.2,Yes
2017/05/25,08:20,0.371,0.227,0.382,0.356,0.326,0.190,0.143,north,4.7,Yes
2017/05/25,08:30,0.370,0.226,0.384,0.355,0.323,0.188,0.144,north,5.2,Yes
2017/05/25,08:40,0.369,0.227,0.382,0.356,0.326,0.188,0.143,north-northwest,5.6,Yes
2017/05/25,08:50,0.371,0.225,0.385,0.354,0.324,0.189,0.144,north,7.3,Yes
2017/05/25,09:00,0.369,0.226,0.382,0.356,0.324,0.188,0.144,north,4.8,Yes
2017/05/25,09:10,0.370,0.226,0.383,0.353,0.323,0.188,0.143,north,5.2,Yes
2017/05/25,09:20,0.367,0.227,0.380,0.354,0.323,0.188,0.144,north,4.6,Yes
2017/05/25,09:30,0.369,0.226,0.383,0.351,0.322,0.188,0.144,north,4.8,Yes
2017/05/25,09:40,0.366,0.225,0.380,0.354,0.325,0.189,-,north,4.7,Yes
2017/05/25,09:50,0.368,0.225,0.380,0.352,0.321,0.188,-,north-northeast,6.4,Yes
2017/05/25,10:00,0.368,0.225,0.380,0.354,0.324,0.187,-,north-northeast,7.6,Yes
2017/05/25,10:10,0.370,0.225,0.380,0.350,0.322,0.188,-,north-northeast,7.1,Yes
2017/05/25,10:20,0.369,0.226,0.378,0.353,0.325,0.188,-,north-northeast,6.9,Yes
2017/05/25,10:30,0.366,0.224,0.379,0.350,0.322,0.188,-,north-northeast,7.1,Yes
2017/05/25,10:40,0.369,0.225,0.381,0.351,0.324,0.187,-,north-northeast,7.5,Yes
2017/05/25,10:50,0.365,0.224,0.380,0.350,0.321,0.186,-,north-northeast,7.4,Yes
2017/05/25,11:00,0.368,0.225,0.379,0.353,0.324,0.187,-,north-northeast,6.7,Yes
2017/05/25,11:10,0.366,0.225,0.378,0.350,0.320,0.186,-,north,7.3,Yes
2017/05/25,11:20,0.367,0.223,0.378,0.352,0.323,0.187,-,north,6.9,Yes
2017/05/25,11:30,0.364,0.223,0.377,0.349,0.320,0.185,-,north,6.0,Yes
2017/05/25,11:40,0.367,0.222,0.381,0.352,0.321,0.185,-,north,6.2,Yes
2017/05/25,11:50,0.364,0.222,0.376,0.349,0.322,0.185,-,north,6.4,Yes
2017/05/25,12:00,0.366,0.222,0.377,0.351,0.322,0.185,-,north,5.3,Yes
2017/05/25,12:10,0.365,0.223,0.377,0.348,0.321,0.185,-,north,5.7,Yes
2017/05/25,12:20,0.368,0.222,0.378,0.352,0.323,0.185,-,north,4.9,Yes
2017/05/25,12:30,0.365,0.224,0.376,0.349,0.322,0.186,-,north,6.8,Yes
2017/05/25,12:40,0.368,0.221,0.376,0.350,0.321,0.185,-,north,6.0,No
2017/05/25,12:50,0.364,0.221,0.376,0.348,0.322,0.186,-,north,6.2,No
2017/05/25,13:00,0.365,0.221,0.379,0.349,0.321,0.183,-,north,4.6,Yes
2017/05/25,13:10,0.364,0.222,0.376,0.349,0.322,0.184,-,north,5.5,Yes
2017/05/25,13:20,0.366,0.221,0.377,0.349,0.320,0.184,-,north,4.6,Yes
2017/05/25,13:30,0.363,0.221,0.376,0.350,0.322,0.183,-,north,4.9,Yes
2017/05/25,13:40,0.367,0.222,0.377,0.349,0.321,0.184,-,north,7.5,Yes
2017/05/25,13:50,0.365,0.220,0.375,0.350,0.322,0.184,-,north,6.4,No
2017/05/25,14:00,0.368,0.222,0.378,0.349,0.321,0.183,-,north,5.8,No
2017/05/25,14:10,0.363,0.220,0.376,0.350,0.321,0.185,-,north,5.7,Yes
2017/05/25,14:20,0.366,0.222,0.379,0.348,0.321,0.183,-,north,4.7,No
2017/05/25,14:30,0.364,0.220,0.377,0.351,0.323,0.184,-,north,6.9,No
2017/05/25,14:40,0.365,0.221,0.379,0.348,0.319,0.183,-,north,7.6,No
2017/05/25,14:50,0.364,0.222,0.374,0.352,0.322,0.184,-,north,6.1,No
2017/05/25,15:00,0.366,0.220,0.379,0.347,0.320,0.184,-,north,6.2,No
2017/05/25,15:10,0.364,0.221,0.375,0.352,0.320,0.184,0.139,north,6.4,No
2017/05/25,15:20,0.366,0.221,0.378,0.348,0.320,0.184,0.139,north,7.0,No
2017/05/25,15:30,0.364,0.221,0.376,0.350,0.321,0.183,0.138,north,5.2,No
2017/05/25,15:40,0.366,0.221,0.379,0.347,0.318,0.182,0.138,north-northeast,6.3,No
2017/05/25,15:50,0.365,0.220,0.375,0.351,0.321,0.184,0.139,north-northeast,6.9,Yes
2017/05/25,16:00,0.367,0.221,0.378,0.348,0.320,0.184,0.139,north-northeast,6.4,No
2017/05/25,16:10,0.365,0.221,0.375,0.352,0.323,0.184,0.139,north-northeast,7.9,No
2017/05/25,16:20,0.366,0.221,0.380,0.348,0.320,0.182,0.139,north,7.5,No
2017/05/25,16:30,0.365,0.221,0.377,0.351,0.322,0.185,0.138,north-northeast,7.5,No
2017/05/25,16:40,0.365,0.222,0.379,0.348,0.321,0.184,0.139,north,7.0,No
2017/05/25,16:50,0.367,0.220,0.377,0.351,0.320,0.184,0.138,north,8.1,No
2017/05/25,17:00,0.364,0.221,0.377,0.348,0.321,0.184,0.138,north,5.9,No
2017/05/25,17:10,0.366,0.222,0.378,0.351,0.320,0.185,0.139,north,4.8,No
2017/05/25,17:20,0.365,0.220,0.377,0.349,0.322,0.183,0.139,north,5.9,No
2017/05/25,17:30,0.367,0.222,0.378,0.350,0.320,0.184,0.139,north,3.8,No
2017/05/25,17:40,0.365,0.221,0.376,0.349,0.323,0.185,0.139,north,4.6,No
2017/05/25,17:50,0.367,0.221,0.379,0.351,0.321,0.184,0.139,north,4.0,No
2017/05/25,18:00,0.364,0.222,0.377,0.349,0.321,0.184,0.138,north,4.9,No
2017/05/25,18:10,0.368,0.221,0.377,0.351,0.320,0.184,0.139,north,4.5,No
2017/05/25,18:20,0.364,0.223,0.376,0.347,0.322,0.184,0.139,north,4.0,No
2017/05/25,18:30,0.368,0.221,0.378,0.352,0.320,0.185,0.138,north,4.5,No
2017/05/25,18:40,0.365,0.222,0.376,0.349,0.323,0.184,0.139,north,4.8,No
2017/05/25,18:50,0.367,0.223,0.379,0.351,0.320,0.183,0.138,north,7.3,No
2017/05/25,19:00,0.365,0.221,0.378,0.348,0.323,0.183,0.139,north,6.7,No
2017/05/25,19:10,0.366,0.221,0.377,0.352,0.321,0.184,0.138,north,5.8,No
2017/05/25,19:20,0.365,0.221,0.379,0.347,0.322,0.185,0.139,north,6.8,No
2017/05/25,19:30,0.367,0.221,0.378,0.351,0.320,0.185,0.139,north,7.2,No
2017/05/25,19:40,0.366,0.221,0.379,0.348,0.323,0.184,0.140,north,5.7,No
2017/05/25,19:50,0.365,0.220,0.377,0.351,0.321,0.184,0.139,north,6.4,No
2017/05/25,20:00,0.367,0.223,0.379,0.350,0.322,0.185,0.139,north-northeast,6.3,No
2017/05/25,20:10,0.366,0.221,0.378,0.351,0.321,0.184,0.138,north,6.2,No
2017/05/25,20:20,0.368,0.222,0.379,0.347,0.321,0.184,0.139,north,5.8,No
2017/05/25,20:30,0.364,0.221,0.377,0.350,0.321,0.184,0.139,north,6.7,No
2017/05/25,20:40,0.369,0.222,0.378,0.349,0.319,0.184,0.139,north,7.1,No
2017/05/25,20:50,0.365,0.221,0.378,0.350,0.322,0.184,0.139,north,6.4,No
2017/05/25,21:00,0.365,0.221,0.377,0.348,0.320,0.184,0.138,north,5.8,No
2017/05/25,21:10,0.364,0.222,0.380,0.350,0.321,0.184,0.139,north,6.5,No
2017/05/25,21:20,0.367,0.221,0.377,0.348,0.319,0.185,0.138,north-northeast,6.7,No
2017/05/25,21:30,0.364,0.221,0.379,0.350,0.322,0.184,0.139,north,6.8,No
2017/05/25,21:40,0.367,0.221,0.378,0.348,0.320,0.184,0.137,north,6.3,No
2017/05/25,21:50,0.364,0.221,0.380,0.351,0.322,0.183,0.139,north,5.0,No
2017/05/25,22:00,0.367,0.222,0.378,0.347,0.319,0.185,0.139,north,5.6,Yes
2017/05/25,22:10,0.364,0.220,0.378,0.351,0.322,0.184,0.139,north,5.0,No
2017/05/25,22:20,0.368,0.222,0.377,0.349,0.319,0.184,0.139,north-northwest,5.5,No
2017/05/25,22:30,0.364,0.221,0.377,0.350,0.321,0.185,0.139,north-northeast,4.9,Yes
2017/05/25,22:40,0.368,0.222,0.378,0.349,0.320,0.184,0.139,north-northwest,5.3,Yes
2017/05/25,22:50,0.364,0.223,0.378,0.349,0.322,0.183,0.139,north-northwest,5.9,No
2017/05/25,23:00,0.368,0.222,0.378,0.349,0.320,0.184,0.139,north-northwest,5.0,No
2017/05/25,23:10,0.364,0.222,0.377,0.352,0.320,0.184,0.139,north,5.3,No
2017/05/25,23:20,0.367,0.221,0.378,0.348,0.320,0.184,0.139,north,6.4,No
2017/05/25,23:30,0.366,0.222,0.378,0.349,0.321,0.184,0.139,north,7.0,No
2017/05/25,23:40,0.365,0.221,0.377,0.349,0.321,0.183,0.139,north,6.4,No
2017/05/25,23:50,0.365,0.222,0.376,0.350,0.320,0.185,0.138,north,6.4,No
